When you browse on this site, cookies collect data to enhance your experience and personalize the content and advertising you see.
Visit our Privacy Policy to learn more. By continuing to use the site, you agree to this use of cookies and data.
  • In Hungary
  • List of Countries
  • For 7 days
  • Water Temperature
  • Weather Map
  • News
  • Weather Widgets
  • user-avatar
    Login

    Hourly Weather Zemst

    Today, 11 December, Wednesday

    Time Temperature Precipitation Wind Pressure Humidity
    00:00 +5°C° 0 mm 9 mps 758 mmHg 70%
    01:00 +5°C° 0.1 mm 9 mps 757 mmHg 75%
    02:00 +5°C° 0.1 mm 8 mps 757 mmHg 79%
    03:00 +4°C° 0.1 mm 7 mps 756 mmHg 84%
    04:00 +4°C° 0.2 mm 6 mps 756 mmHg 86%
    05:00 +5°C° 0.2 mm 5 mps 756 mmHg 88%
    06:00 +5°C° 0.2 mm 4 mps 756 mmHg 90%
    07:00 +5°C° 0.2 mm 4 mps 755 mmHg 91%
    08:00 +5°C° 0.2 mm 3 mps 755 mmHg 91%
    09:00 +5°C° 0.2 mm 3 mps 754 mmHg 91%
    10:00 +5°C° 0.2 mm 3 mps 754 mmHg 89%
    11:00 +7°C° 0.2 mm 3 mps 754 mmHg 87%
    12:00 +7°C° 0.2 mm 3 mps 753 mmHg 85%
    13:00 +7°C° 0 mm 3 mps 753 mmHg 85%
    14:00 +7°C° 0 mm 3 mps 752 mmHg 84%
    15:00 +7°C° 0 mm 3 mps 752 mmHg 83%
    16:00 +7°C° 0 mm 3 mps 752 mmHg 83%
    17:00 +5°C° 0 mm 4 mps 751 mmHg 83%
    18:00 +5°C° 0 mm 4 mps 751 mmHg 83%
    19:00 +5°C° 0 mm 5 mps 751 mmHg 83%
    20:00 +3°C° 0 mm 5 mps 751 mmHg 83%
    21:00 +3°C° 0 mm 6 mps 751 mmHg 82%
    22:00 +3°C° 0 mm 6 mps 751 mmHg 83%
    23:00 +3°C° 0 mm 5 mps 751 mmHg 84%

    Tomorrow, 12 December, Thursday

    Time Temperature Precipitation Wind Pressure Humidity
    00:00 +3°C° 0 mm 5 mps 750 mmHg 84%
    01:00 +3°C° 0 mm 5 mps 750 mmHg 84%
    02:00 +2°C° 0 mm 5 mps 750 mmHg 84%
    03:00 +3°C° 0 mm 4 mps 750 mmHg 85%
    04:00 +3°C° 0 mm 4 mps 750 mmHg 85%
    05:00 +1°C° 0 mm 4 mps 751 mmHg 86%
    06:00 +1°C° 0 mm 4 mps 751 mmHg 87%
    07:00 +1°C° 0 mm 4 mps 751 mmHg 86%
    08:00 +1°C° 0 mm 4 mps 751 mmHg 84%
    09:00 +1°C° 0 mm 5 mps 750 mmHg 83%
    10:00 +2°C° 0 mm 5 mps 750 mmHg 79%
    11:00 +3°C° 0 mm 6 mps 750 mmHg 76%
    12:00 +4°C° 0 mm 6 mps 749 mmHg 73%
    13:00 +3°C° 0 mm 6 mps 748 mmHg 74%
    14:00 +3°C° 0 mm 6 mps 747 mmHg 74%
    15:00 +3°C° 0 mm 7 mps 745 mmHg 74%
    16:00 +3°C° 0 mm 7 mps 744 mmHg 75%
    17:00 +1°C° 0 mm 8 mps 743 mmHg 75%
    18:00 +1°C° 0 mm 9 mps 741 mmHg 75%
    19:00 +2°C° 0.5 mm 9 mps 739 mmHg 78%
    20:00 +2°C° 0.5 mm 10 mps 737 mmHg 81%
    21:00 +2°C° 0.5 mm 11 mps 736 mmHg 84%
    22:00 +3°C° 0.5 mm 10 mps 734 mmHg 85%
    23:00 +3°C° 0.5 mm 9 mps 733 mmHg 85%

    Day after tomorrow, 13 December, Friday

    Time Temperature Precipitation Wind Pressure Humidity
    00:00 +5°C° 0.5 mm 8 mps 732 mmHg 85%
    01:00 +5°C° 0.7 mm 7 mps 731 mmHg 88%
    02:00 +6°C° 0.7 mm 5 mps 730 mmHg 91%
    03:00 +6°C° 0.7 mm 4 mps 728 mmHg 94%
    04:00 +5°C° 2.8 mm 5 mps 729 mmHg 93%
    05:00 +4°C° 2.8 mm 6 mps 729 mmHg 92%
    06:00 +4°C° 2.8 mm 8 mps 729 mmHg 90%
    07:00 +4°C° 0.5 mm 7 mps 729 mmHg 87%
    08:00 +4°C° 0.5 mm 7 mps 730 mmHg 83%
    09:00 +4°C° 0.5 mm 6 mps 731 mmHg 80%
    10:00 +4°C° 0.1 mm 6 mps 732 mmHg 80%
    11:00 +4°C° 0.1 mm 6 mps 733 mmHg 81%
    12:00 +4°C° 0.1 mm 6 mps 733 mmHg 82%
    13:00 +5°C° 0.1 mm 6 mps 734 mmHg 81%
    14:00 +6°C° 0.1 mm 5 mps 735 mmHg 80%
    15:00 +6°C° 0.1 mm 5 mps 736 mmHg 80%
    16:00 +5°C° 0.1 mm 6 mps 737 mmHg 80%
    17:00 +5°C° 0.1 mm 6 mps 738 mmHg 80%
    18:00 +5°C° 0.1 mm 6 mps 739 mmHg 81%
    19:00 +5°C° 0.1 mm 6 mps 739 mmHg 80%
    20:00 +5°C° 0.1 mm 6 mps 740 mmHg 80%
    21:00 +5°C° 0.1 mm 7 mps 740 mmHg 79%
    22:00 +5°C° 0 mm 7 mps 740 mmHg 79%
    23:00 +4°C° 0 mm 8 mps 739 mmHg 79%

    14 December, Saturday

    Time Temperature Precipitation Wind Pressure Humidity
    00:00 +4°C° 0 mm 8 mps 739 mmHg 79%
    01:00 +5°C° 0.3 mm 8 mps 738 mmHg 77%
    02:00 +6°C° 0.3 mm 9 mps 738 mmHg 75%
    03:00 +7°C° 0.3 mm 9 mps 737 mmHg 73%
    04:00 +6°C° 0.1 mm 9 mps 738 mmHg 72%
    05:00 +5°C° 0.1 mm 10 mps 738 mmHg 71%
    06:00 +5°C° 0.1 mm 10 mps 739 mmHg 70%
    07:00 +3°C° 0 mm 10 mps 740 mmHg 67%
    08:00 +3°C° 0 mm 10 mps 741 mmHg 64%
    09:00 +3°C° 0 mm 10 mps 742 mmHg 61%
    10:00 +5°C° 0 mm 9 mps 743 mmHg 60%
    11:00 +5°C° 0 mm 9 mps 743 mmHg 59%
    12:00 +6°C° 0 mm 8 mps 744 mmHg 58%
    13:00 +5°C° 0.7 mm 7 mps 744 mmHg 68%
    14:00 +4°C° 0.7 mm 6 mps 744 mmHg 79%
    15:00 +5°C° 0.7 mm 5 mps 744 mmHg 89%
    16:00 +4°C° 0.3 mm 6 mps 745 mmHg 84%
    17:00 +4°C° 0.3 mm 6 mps 746 mmHg 80%
    18:00 +4°C° 0.3 mm 7 mps 747 mmHg 75%
    19:00 +3°C° 0 mm 6 mps 747 mmHg 74%
    20:00 +3°C° 0 mm 6 mps 748 mmHg 74%
    21:00 +2°C° 0 mm 5 mps 749 mmHg 73%
    22:00 +2°C° 0 mm 5 mps 748 mmHg 77%
    23:00 +2°C° 0 mm 5 mps 748 mmHg 81%

    15 December, Sunday

    Time Temperature Precipitation Wind Pressure Humidity
    00:00 +2°C° 0 mm 5 mps 747 mmHg 85%
    01:00 +3°C° 0 mm 6 mps 746 mmHg 85%
    02:00 +4°C° 0 mm 7 mps 745 mmHg 85%
    03:00 +4°C° 0 mm 8 mps 744 mmHg 85%
    04:00 +5°C° 0.4 mm 9 mps 744 mmHg 80%
    05:00 +5°C° 0.4 mm 9 mps 744 mmHg 76%
    06:00 +5°C° 0.4 mm 9 mps 745 mmHg 72%
    07:00 +5°C° 0 mm 10 mps 746 mmHg 70%
    08:00 +5°C° 0 mm 10 mps 747 mmHg 69%
    09:00 +5°C° 0 mm 10 mps 748 mmHg 67%
    10:00 +5°C° 0 mm 10 mps 749 mmHg 65%
    11:00 +6°C° 0 mm 9 mps 750 mmHg 63%
    12:00 +6°C° 0 mm 8 mps 751 mmHg 61%
    13:00 +6°C° 0.1 mm 7 mps 751 mmHg 64%
    14:00 +5°C° 0.1 mm 7 mps 752 mmHg 67%
    15:00 +5°C° 0.1 mm 7 mps 752 mmHg 69%
    16:00 +5°C° 0 mm 7 mps 752 mmHg 71%
    17:00 +4°C° 0 mm 7 mps 753 mmHg 73%
    18:00 +4°C° 0 mm 6 mps 753 mmHg 75%
    19:00 +4°C° 0 mm 7 mps 753 mmHg 74%
    20:00 +4°C° 0 mm 7 mps 753 mmHg 74%
    21:00 +4°C° 0 mm 7 mps 753 mmHg 73%
    22:00 +4°C° 0 mm 7 mps 753 mmHg 74%
    23:00 +4°C° 0 mm 7 mps 753 mmHg 74%

    16 December, Monday

    Time Temperature Precipitation Wind Pressure Humidity
    00:00 +5°C° 0 mm 7 mps 753 mmHg 75%
    01:00 +5°C° 0 mm 6 mps 752 mmHg 77%
    02:00 +5°C° 0 mm 6 mps 752 mmHg 80%
    03:00 +5°C° 0 mm 6 mps 752 mmHg 83%
    04:00 +6°C° 0 mm 5 mps 752 mmHg 84%
    05:00 +6°C° 0 mm 5 mps 752 mmHg 84%
    06:00 +6°C° 0 mm 5 mps 752 mmHg 85%
    07:00 +6°C° 0 mm 5 mps 752 mmHg 86%
    08:00 +6°C° 0 mm 5 mps 752 mmHg 86%
    09:00 +6°C° 0 mm 5 mps 752 mmHg 87%
    10:00 +7°C° 0 mm 4 mps 752 mmHg 84%
    11:00 +7°C° 0 mm 4 mps 752 mmHg 82%
    12:00 +8°C° 0 mm 4 mps 752 mmHg 79%
    13:00 +8°C° 0 mm 4 mps 752 mmHg 80%
    14:00 +8°C° 0 mm 3 mps 751 mmHg 82%
    15:00 +8°C° 0 mm 2 mps 751 mmHg 84%
    16:00 +8°C° 0.6 mm 2 mps 750 mmHg 87%
    17:00 +8°C° 0.6 mm 2 mps 750 mmHg 91%
    18:00 +7°C° 0.6 mm 2 mps 749 mmHg 94%
    19:00 +7°C° 1.6 mm 3 mps 749 mmHg 95%
    20:00 +8°C° 1.6 mm 3 mps 748 mmHg 95%
    21:00 +8°C° 1.6 mm 3 mps 748 mmHg 96%
    22:00 +8°C° 1.4 mm 3 mps 747 mmHg 94%
    23:00 +8°C° 1.4 mm 4 mps 747 mmHg 93%
    Show more